Regional Weather Roundup
Issued by NWS Wakefield, VA

Home | Current Version | Previous Version | Graphics & Text | Print | Product List | Glossary On
Versions: 1 2 3 4 5 6 7 8 9 10 11 12 13 14 15 16 17 18 19 20 21 22 23 24 25 26 27 28 29 30 31 32 33 34 35 36 37 38 39 40 41 42 43 44 45 46 47 48 49 50
000
ASUS41 KAKQ 221016
RWRAKQ

REGIONAL WEATHER ROUNDUP
NATIONAL WEATHER SERVICE WAKEFIELD VA
600 AM EDT MON MAY 22 2017

Note: "fair" indicates few or no clouds below 12,000 feet with no
significant weather and/or obstructions to visibility. * = Denotes
station may not report precipitation (e.g., rain,snow,etc.),
thunder or fog.

VAZ042-051-052>054-056-221100-
NORTHERN VIRGINIA

CITY           SKY/WX    TMP DP  RH WIND       PRES   REMARKS
WASH NATIONAL  LGT RAIN  59  58  96 E6        30.10F
DULLES         LGT RAIN  57  56  96 SE5       30.09F FOG
FORT BELVOIR   LGT RAIN  57  55  94 CALM      30.10F
QUANTICO       CLOUDY    60  59  96 E6        30.11S
FREDERICKSBRG* LGT RAIN  60  60 100 CALM      30.09S
STAFFORD*      DRIZZLE   58  58 100 CALM      30.13F
WARRENTON      RAIN      58  55  90 CALM      30.10S
CULPEPER*      RAIN      58  57  99 CALM      30.10F
MANASSAS*      RAIN      58  57  97 CALM      30.10F FOG
LEESBURG*      HVY RAIN  59  59 100 CALM      30.10F
WINCHESTER     LGT RAIN  55  54  94 SE3       30.07F
FRONT ROYAL*   CLOUDY    59  59 100 CALM      30.06F
LURAY*         CLOUDY    59  59 100 CALM      30.08F
$$

VAZ048-049-060>072-079>083-221100-
CENTRAL AND SOUTH CENTRAL VIRGINIA

CITY           SKY/WX    TMP DP  RH WIND       PRES   REMARKS
RICHMOND       CLOUDY    60  60 100 NE3       30.09S FOG
CHESTERFIELD*  CLOUDY    61  45  55 CALM      30.10S
PETERSBURG*    LGT RAIN  60  59  96 CALM      30.10R
HANOVER        LGT RAIN  60  57  89 MISG      30.10S FOG
TAPPAHANNOCK*  RAIN      62  62 100 CALM      30.10S
QUINTON*       CLOUDY    60  60 100 CALM      30.09S FOG
CHARLOTTSVILLE LGT RAIN  60  59  96 N3        30.09S FOG
GORDONSVILLE*  CLOUDY    57  57 100 CALM      30.08F
ORANGE*        HVY RAIN  55  55 100 CALM      30.09F
LOUISA*        HVY RAIN  61  61 100 CALM      30.08F
BUMPASS*       CLOUDY    57  57 100 CALM      30.10S
FARMVILLE*     CLOUDY    62  62 100 CALM      30.08R FOG
CREWE*         CLOUDY    60  56  87 CALM      30.08S
FORT PICKETT*  CLOUDY    60  56  88 CALM      30.09R
CHASE CITY*    CLOUDY    61  59  94 CALM      30.07S
CLARKSVILLE*   CLOUDY    63  63 100 E3        30.06S
SOUTH HILL*    CLOUDY    61  60  99 CALM      30.14R
LAWRENCEVILLE* CLOUDY    61  60  96 NE3       30.08S
EMPORIA*       CLOUDY    61  61 100 CALM      30.10S
$$

VAZ088>098-221100-
SOUTHEAST VIRGINIA

CITY           SKY/WX    TMP DP  RH WIND       PRES   REMARKS
NORFOLK        CLOUDY    70  66  87 S6        30.07F
VIRGINIA BEACH CLOUDY    69  64  84 SE6       30.07F
NORFOLK NAVAL  CLOUDY    70  65  84 S7        30.08F
WEST POINT*    CLOUDY    62  61  97 CALM      30.10S
SALUDA*        CLOUDY    65  65 100 CALM      30.08S
NEWPORT NEWS   CLOUDY    68  65  90 S5        30.07F
LANGLEY AFB    CLOUDY    68  66  94 S5        30.06F
FORT EUSTIS    CLOUDY    67  64  90 S3        30.05F
WILLIAMSBURG*  CLOUDY    66  66 100 CALM      30.09R
HR EXEC AP*    FAIR      64  61  88 CALM      30.06S
FRANKLIN*      CLOUDY    64  62  94 CALM      30.08S
US460-WAKEFLD  CLOUDY    63  62  97 CALM      30.09R FOG
$$

VAZ020-022-025-037-045-221100-
WEST CENTRAL AND SOUTHWEST VIRGINIA

CITY           SKY/WX    TMP DP  RH WIND       PRES   REMARKS
STAUNTON*      LGT RAIN  58  58  98 CALM      30.11S
WAYNESBORO*    CLOUDY    58  58 100 S5        30.11R
HOT SPRINGS VA DRIZZLE   46  45  93 CALM      30.14S
LYNCHBURG      CLOUDY    60  59  96 N7        30.09S FOG
DANVILLE       LGT RAIN  63  63 100 E5        30.04F
SOUTH BOSTON*  CLOUDY    62  61  94 CALM      30.07S
MARTINSVILLE   HVY RAIN  59  58  96 N13       30.07S VSB 3/4
ROANOKE        CLOUDY    60  60 100 CALM      30.10F
BLACKSBURG     CLOUDY    58  57  97 CALM      30.14S
DUBLIN*        CLOUDY    59  56  91 CALM      30.12S FOG
MARION*        CLOUDY    60  57  90 CALM      30.14S
HILLSVILLE*    FOG       56  56 100 CALM      30.10S VSB 1/4
RICHLANDS*     CLOUDY    59  59 100 CALM      30.11R
WISE*          NOT AVBL
ABINGDON*      MOCLDY    63  62  99 CALM      30.10R
$$

MDZ021>025-VAZ099-100-221100-
SOUTHERN MARYLAND AND THE DELMARVA PENINSULA

CITY           SKY/WX    TMP DP  RH WIND       PRES   REMARKS
PATUXENT RIVER CLOUDY    60  60 100 NE6       30.09S
BAY BRIDGE APT LGT RAIN  57  57 100 E3        30.11F FOG
LEONARDTOWN    CLOUDY    59  55  88 CALM      30.11S
DOVER          HVY RAIN  59  59 100 NE3       30.10F FOG
GEORGETOWN     LGT RAIN  61  59  93 CALM      30.11S FOG
EASTON         RAIN      57  55  94 NE3       30.15S
CAMBRIDGE      CLOUDY    59  57  94 N5        30.11S FOG
SALISBURY      CLOUDY    61  61 100 SE3       30.10S
OCEAN CITY     LGT RAIN  61  59  93 CALM      30.12S
WALLOPS ISLAND CLOUDY    63  62  97 SE9       30.10S
ACCOMACK*      CLOUDY    67  13  12 S9        30.09S
$$

NCZ012>017-030>032-221100-
NORTH CENTRAL AND EASTERN NORTH CAROLINA

CITY           SKY/WX    TMP DP  RH WIND       PRES   REMARKS
ROANOKE RAPIDS CLOUDY    64  63  94 CALM      30.08S
RALEIGH        LGT RAIN  69  67  93 SE9       30.03F
ELIZABETH CITY CLOUDY    71  70  96 S6        30.08F
AHOSKIE*         N/A     63  62  97 CALM      30.08F FOG
EDENTON*       CLOUDY    66  63  90 CALM      30.08F
CURRITUCK*     CLOUDY    70  70 100 CALM      30.09S
KILL DEVIL HLS NOT AVBL
MANTEO         CLOUDY    71  65  83 S8        30.09F
CAPE HATTERAS  LGT RAIN  73  69  87 S7        30.09R
TARBORO*       NOT AVBL
GOLDSBORO      MOCLDY    67  67 100 CALM      30.06R
WASHINGTON     CLOUDY    65  65  97 CALM      30.08S FOG
GREENVILLE     CLOUDY    66  66 100 CALM      30.09S
NEW BERN       CLOUDY    69  69 100 CALM      30.09R
WILMINGTON     MOCLDY    71  69  93 S5        30.07S
$$

VAZ048-221100-
ELSEWHERE

CITY           SKY/WX    TMP DP  RH WIND       PRES   REMARKS
HARRISBURG PA  CLOUDY    57  54  89 SE9       30.10S
BALTIMORE      LGT RAIN  57  57 100 E7        30.10F FOG
ANNAPOLIS      CLOUDY    60  60 100 E5        30.10F
ANDREWS AFB    LGT RAIN  57  55  94 E5        30.09S
PHILADELPHIA   LGT RAIN  56  53  90 E6        30.14F FOG
HENDERSON NC   LGT RAIN  64  62  94 SE3       30.06F
GREENSBORO     LGT RAIN  67  67 100 S7        29.99S FOG
ROCKY MOUNT    CLOUDY    65  65 100 CALM      30.07S
$$

VAZ100-221100-
MARINE

STATION/POSITION TIME  TEMP    WIND        PRES    WAVE   SWELL
                       AIR SEA DIR/SP/G            HT/PER HT/PER
                 (UTC) (F)     (DEG/KT/KT) (MB)    (FT/S) (FT/S)
CAPE MAY NJ      0942   59 63  110/  6/  8 1019.4S
LEWES DE         0942   60 63  150/  7/  9 1019.1F
15NM E FENWICK I 0850   59 57  110/ 12/ 14 1020.1    4/ 7   3/ 7
OCEAN-CITY-INLET 0942   60 62  160/  9/ 12 1020.0R
WACHAPREAGUE VA  0942   65 66  160/  4/ 10 1018.7F
THOMAS POINT MD  1000   58 66   70/  7/  8   N/A
GOOSES REEF MD   0950   60      50/  8/ 10 1020.0F
COVE POINT MD    0942   59      60/  9/ 11 1019.8F
SOLOMONS ISLAND  0942   60 67   40/  5/  9   N/A
BISHOPS HEAD MD  0942   62 67   90/  3/  9 1019.4F
PINEY POINT MD   0948           30/  8/  9   N/A
POTOMAC MD       0950   65      70/  6/  6 1017.9F
CAMBRIDGE MD     0942   58 69                N/A
LEWISETTA VA     0942   64 71   30/  1/  2 1018.4F
RAPPAHANNOCK LGT 0948          140/ 10/ 11 1019.0F
STINGRAY PT      0950   68     180/ 10/ 12 1018.3F
YORK RVR RNG VA  0942   69     170/  8/  9 1017.7F
YORKTOWN VA      0942   68 69  180/  4/  5 1018.0F
JAMESTOWN VA     0950   65     250/  2/  4   N/A
DOMINION TERM VA 0942   69     170/  8/  9 1018.3F
KIPTOPEKE VA     0948      65  160/ 12/ 14   N/A
CHES BAY BRIDGE  0942   68 66  160/  9/ 11 1018.3F
CAPE HENRY VA    0942   66     130/  8/  9   N/A
WILLOUBY STN VA  0942   69     160/ 13/ 15 1017.8F
S CRANEY ISL VA  0942   69     210/  4/  6 1018.1F
CAPE HENRY BUOY  0942      61                N/A     4/ 6
1ST LANDING BUOY 0950   68                 1018.5F
CAPE CHARLES BUO 0951      62                N/A     3/ 8
64NM E OF VA BCH 0950   69 69  150/ 10/ 12 1019.7R   6/10   5/10
DUCK PIER NC     0942   67 66  140/  9/ 10 1018.4S
44100 DUCK FRF   0935      65                N/A     5/ 7   2/11
44056 DUCK FRF   0900      65                N/A     4/ 6   2/11
OREGON INLET NC  0942   68 69  120/  4/  6 1018.8R
HATTERAS NC      0942   72 74  180/  5/ 10 1018.5R
DIAMOND SHLS NC  0950   73 78  230/ 10/ 14 1018.8R   5/ 8   3/ 8
CAPE LOOKOUT NC  0900   72     200/  1/  1 1018.0F
$$



USA.gov is the U.S. government's official web portal to all federal, state and local government web resources and services.